DW9313 Weather Reports


time (UTC)temp
F
wind
direction
speed
knots
gust
knots
rain 1hr
in
rain 24hr
in
rain mn
in
humidity
%
barometer
mb
20220524031741 48 291 2.6 6.1 0.00 0.07 0.00 90 1004.9
20220524031240 48 295 2.6 6.1 0.00 0.07 0.00 90 1004.8
20220524030739 48 309 4.3 7.0 0.00 0.07 0.00 90 1004.8
20220524030239 48 280 2.6 7.0 0.00 0.07 0.00 90 1004.7
20220524025739 48 290 2.6 5.2 0.00 0.07 0.00 89 1004.7
20220524025240 48 274 1.7 4.3 0.00 0.07 0.00 89 1004.6
20220524024741 48 295 1.7 5.2 0.00 0.07 0.00 89 1004.7
20220524024241 48 268 1.7 5.2 0.00 0.07 0.00 89 1004.7
20220524023741 48 279 1.7 4.3 0.00 0.07 0.00 89 1004.7
20220524023240 49 301 3.5 6.1 0.00 0.07 0.00 89 1004.7
20220524022740 49 276 1.7 7.0 0.00 0.07 0.00 89 1004.7
20220524022240 49 289 1.7 6.1 0.00 0.07 0.00 89 1004.7
20220524021740 48 287 2.6 7.0 0.00 0.07 0.00 89 1004.7
20220524021240 48 288 3.5 7.0 0.00 0.07 0.00 89 1004.6
20220524020741 48 284 2.6 7.0 0.00 0.07 0.00 89 1004.6
20220524020240 48 287 3.5 7.0 0.00 0.07 0.00 90 1004.6
20220524015741 48 286 2.6 7.0 0.00 0.07 0.00 89 1004.6
20220524015242 48 297 1.7 5.2 0.00 0.07 0.00 89 1004.5
20220524014740 48 288 1.7 5.2 0.00 0.07 0.00 89 1004.5
20220524014240 48 292 2.6 6.1 0.00 0.07 0.00 89 1004.5
20220524013740 48 282 2.6 5.2 0.00 0.07 0.00 89 1004.5
20220524013240 48 289 2.6 5.2 0.00 0.07 0.00 88 1004.4
20220524012740 48 289 2.6 5.2 0.00 0.07 0.00 88 1004.4
20220524012240 49 288 2.6 5.2 0.00 0.07 0.00 88 1004.4
20220524011741 49 291 1.7 5.2 0.00 0.07 0.00 89 1004.4
20220524011240 49 289 2.6 6.1 0.00 0.07 0.00 89 1004.4
20220524010740 48 289 2.6 5.2 0.00 0.07 0.00 89 1004.4
20220524010240 48 281 2.6 5.2 0.00 0.07 0.00 89 1004.4
20220524005740 48 309 2.6 6.1 0.00 0.07 0.00 89 1004.4
20220524005241 48 289 2.6 6.1 0.00 0.07 0.00 89 1004.4
20220524004742 48 289 3.5 7.0 0.00 0.07 0.00 89 1004.4
20220524004240 48 297 2.6 7.0 0.00 0.07 0.00 89 1004.4
20220524003741 48 283 0.9 5.2 0.00 0.07 0.00 89 1004.4
20220524003241 47 300 0.9 4.3 0.00 0.07 0.00 89 1004.4
20220524002741 47 291 0.9 4.3 0.00 0.07 0.00 90 1004.4
20220524002240 47 261 0.0 0.0 0.00 0.07 0.00 89 1004.4
20220524001741 47 247 0.0 0.0 0.00 0.07 0.00 88 1004.4
20220524001241 47 247 0.0 0.0 0.00 0.07 0.00 88 1004.4
20220524000741 47 247 0.0 0.0 0.00 0.07 0.00 88 1004.5
20220524000242 47 249 0.0 0.0 0.00 0.07 0.00 88 1004.5
20220523235742 48 249 0.0 0.0 0.00 0.07 0.00 87 1004.5
20220523235242 48 250 0.0 0.0 0.00 0.07 0.00 87 1004.5
20220523234742 48 272 0.0 0.0 0.00 0.07 0.00 87 1004.5
20220523234240 48 284 0.0 0.0 0.00 0.07 0.00 87 1004.4
20220523233741 49 289 0.0 0.0 0.00 0.07 0.00 87 1004.5
20220523233242 48 300 0.0 5.2 0.00 0.07 0.00 87 1004.5
20220523232741 48 298 0.9 1.7 0.00 0.07 0.00 87 1004.5
20220523232242 48 290 0.0 5.2 0.00 0.07 0.00 87 1004.5
20220523231742 48 293 1.7 5.2 0.00 0.07 0.00 87 1004.5
20220523231241 48 286 1.7 5.2 0.00 0.07 0.00 86 1004.5
20220523230814 48 286 1.7 5.2 0.00 0.07 0.00 86 1004.5
20220523230241 48 293 2.6 6.1 0.00 0.07 0.00 87 1004.5
20220523225741 48 289 2.6 5.2 0.00 0.07 0.07 87 1004.5
20220523225241 49 287 2.6 5.2 0.00 0.07 0.07 86 1004.4
20220523224742 49 279 2.6 5.2 0.00 0.07 0.07 85 1004.3
20220523224243 49 276 1.7 5.2 0.00 0.07 0.07 85 1004.3
20220523223743 50 281 0.9 5.2 0.00 0.07 0.07 85 1004.2
20220523223242 50 304 0.9 5.2 0.00 0.07 0.07 85 1004.1
20220523222742 50 292 0.9 5.2 0.00 0.07 0.07 85 1004.1
20220523222242 50 306 2.6 5.2 0.01 0.07 0.07 85 1004.1
20220523221743 50 323 2.6 5.2 0.01 0.07 0.07 85 1004.1
20220523221241 50 322 1.7 5.2 0.01 0.07 0.07 85 1004.1
20220523220744 50 283 0.9 5.2 0.01 0.07 0.07 85 1004.1
20220523220242 50 296 0.9 5.2 0.01 0.07 0.07 85 1004.1
20220523215742 50 296 1.7 5.2 0.01 0.07 0.07 85 1004.2
20220523215242 50 318 2.6 5.2 0.01 0.07 0.07 85 1004.2
20220523214742 50 325 2.6 5.2 0.01 0.07 0.07 85 1004.2
20220523214243 51 325 1.7 5.2 0.01 0.07 0.07 85 1004.2
20220523213742 51 323 1.7 7.8 0.01 0.07 0.07 85 1004.2
20220523213242 51 321 3.5 7.0 0.01 0.07 0.07 85 1004.2
20220523212742 51 326 2.6 7.0 0.01 0.07 0.07 85 1004.2
20220523212245 51 313 5.2 7.0 0.00 0.06 0.06 84 1004.2
20220523211743 52 328 4.3 10.4 0.00 0.06 0.06 84 1004.2
20220523211243 52 320 6.1 10.4 0.00 0.06 0.06 83 1004.2
20220523210744 52 327 6.1 10.4 0.00 0.06 0.06 83 1004.1
20220523210242 52 315 2.6 7.0 0.00 0.06 0.06 84 1004.1
20220523205744 52 312 3.5 7.0 0.00 0.06 0.06 84 1004.1
20220523205245 52 326 3.5 7.0 0.00 0.06 0.06 84 1004.0
20220523204743 51 318 2.6 6.1 0.00 0.06 0.06 84 1004.0
20220523204244 51 290 1.7 5.2 0.00 0.06 0.06 84 1004.0
20220523203744 51 277 0.0 1.7 0.00 0.06 0.06 84 1003.9
20220523203242 51 255 0.9 4.3 0.00 0.06 0.06 84 1003.8
20220523202744 52 283 2.6 5.2 0.00 0.06 0.06 84 1003.8
20220523202244 52 285 2.6 6.1 0.00 0.06 0.06 83 1003.7
20220523201742 52 284 2.6 5.2 0.00 0.06 0.06 83 1003.7
20220523201243 52 277 2.6 7.0 0.00 0.06 0.06 83 1003.6
20220523200746 52 296 3.5 7.0 0.00 0.06 0.06 83 1003.5
20220523200243 52 294 1.7 7.0 0.00 0.06 0.06 83 1003.4
20220523195744 52 308 2.6 6.1 0.00 0.06 0.06 83 1003.4
20220523195243 52 286 2.6 6.1 0.00 0.06 0.06 83 1003.4
20220523194743 52 289 2.6 7.0 0.00 0.06 0.06 82 1003.4
20220523194245 52 288 2.6 7.0 0.00 0.06 0.06 82 1003.4
20220523193744 53 291 4.3 7.8 0.00 0.06 0.06 82 1003.3
20220523193244 53 284 2.6 10.4 0.00 0.06 0.06 82 1003.3
20220523192744 53 292 3.5 7.0 0.00 0.06 0.06 82 1003.3
20220523192244 52 288 4.3 7.8 0.00 0.06 0.06 82 1003.3
20220523191746 52 292 3.5 7.0 0.00 0.06 0.06 82 1003.3
20220523191246 52 302 3.5 10.4 0.00 0.06 0.06 82 1003.3
20220523190744 53 299 5.2 10.4 0.00 0.06 0.06 82 1003.3
20220523190245 53 316 5.2 7.8 0.00 0.06 0.06 82 1003.2
20220523185745 53 313 4.3 7.0 0.00 0.06 0.06 81 1003.1
20220523185244 53 333 5.2 10.4 0.00 0.06 0.06 81 1003.2
20220523184743 53 325 7.0 11.3 0.00 0.06 0.06 80 1003.2
20220523184244 53 327 5.2 11.3 0.00 0.06 0.06 80 1003.2
20220523183744 54 329 4.3 10.4 0.00 0.06 0.06 80 1003.2
20220523183245 54 328 6.1 10.4 0.00 0.06 0.06 79 1003.2
20220523182744 54 287 4.3 10.4 0.00 0.06 0.06 81 1003.3
20220523182246 53 300 5.2 10.4 0.00 0.06 0.06 80 1003.3
20220523181744 53 316 6.1 12.2 0.00 0.06 0.06 80 1003.2
20220523181244 53 305 5.2 10.4 0.00 0.06 0.06 83 1003.2
20220523180745 53 311 4.3 10.4 0.00 0.06 0.06 83 1003.1
20220523180246 54 323 7.8 12.2 0.00 0.06 0.06 80 1003.1
20220523175747 54 316 7.8 13.9 0.00 0.06 0.06 77 1003.1
20220523175244 54 314 7.0 17.4 0.00 0.06 0.06 75 1003.0
20220523174744 55 316 9.6 17.4 0.00 0.06 0.06 71 1003.0
20220523174244 56 315 6.1 13.9 0.00 0.06 0.06 74 1002.9
20220523173746 57 312 6.1 12.2 0.00 0.06 0.06 76 1002.8
20220523173245 57 328 4.3 7.0 0.00 0.06 0.06 76 1002.6
20220523172749 56 317 6.1 12.2 0.00 0.06 0.06 76 1002.5
20220523172251 56 315 4.3 7.0 0.00 0.06 0.06 79 1002.6
20220523171756 55 296 0.0 5.2 0.00 0.06 0.06 80 1002.6
20220523171258 54 351 1.7 5.2 0.00 0.06 0.06 79 1002.8
20220523165746 55 339 3.5 10.4 0.00 0.06 0.06 77 1002.8
20220523165247 55 343 5.2 12.2 0.00 0.06 0.06 74 1002.8
20220523164246 57 328 1.7 7.0 0.00 0.06 0.06 76 1002.6
20220523163745 56 318 2.6 5.2 0.00 0.06 0.06 74 1002.5
20220523163247 57 331 1.7 5.2 0.00 0.06 0.06 74 1002.4
20220523162746 57 315 0.9 4.3 0.00 0.06 0.06 76 1002.4
20220523162245 56 64 1.7 5.2 0.00 0.06 0.06 77 1002.3
20220523161745 56 333 2.6 5.2 0.00 0.06 0.06 76 1002.3
20220523161244 56 327 2.6 7.0 0.01 0.06 0.06 77 1002.3
20220523160745 57 329 4.3 11.3 0.01 0.06 0.06 76 1002.3
20220523160245 57 329 4.3 12.2 0.02 0.06 0.06 77 1002.3
20220523155746 57 24 1.7 7.0 0.05 0.06 0.06 77 1002.4
20220523155244 57 38 3.5 7.0 0.06 0.06 0.06 78 1002.4
20220523154746 57 341 5.2 12.2 0.06 0.06 0.06 79 1002.4
20220523154246 56 347 3.5 7.0 0.06 0.06 0.06 82 1002.4
20220523153746 56 337 2.6 10.4 0.06 0.06 0.06 82 1002.5
20220523152248 56 53 1.7 7.0 0.06 0.06 0.06 86 1002.5
20220523151746 54 325 1.7 7.0 0.06 0.06 0.06 83 1002.5
20220523151246 53 277 0.0 4.3 0.06 0.06 0.06 84 1002.4
20220523150745 53 291 2.6 7.0 0.06 0.06 0.06 82 1002.5
20220523150247 53 305 4.3 7.0 0.06 0.06 0.06 82 1002.6
20220523145745 53 298 5.2 10.4 0.05 0.05 0.05 81 1002.6
20220523145246 53 298 7.8 12.2 0.05 0.05 0.05 81 1002.6
20220523144747 55 308 8.7 15.6 0.02 0.02 0.02 78 1002.5
20220523144246 56 302 7.8 15.6 0.00 0.00 0.00 72 1002.4
20220523143747 57 298 9.6 17.4 0.00 0.00 0.00 67 1002.4
20220523143246 59 305 7.8 18.2 0.00 0.00 0.00 64 1002.4
20220523142747 60 305 6.1 13.9 0.00 0.00 0.00 63 1002.3
20220523142247 60 298 5.2 10.4 0.00 0.00 0.00 63 1002.3
20220523141745 59 242 3.5 7.8 0.00 0.00 0.00 65 1002.3
20220523141247 59 308 3.5 10.4 0.00 0.00 0.00 65 1002.4
20220523140745 59 293 3.5 7.0 0.00 0.00 0.00 71 1002.4
20220523140246 59 287 3.5 6.1 0.00 0.00 0.00 71 1002.5
20220523135747 58 323 5.2 7.0 0.00 0.00 0.00 69 1002.5
20220523135245 58 316 4.3 7.0 0.00 0.00 0.00 69 1002.5
20220523134747 59 294 4.3 10.4 0.00 0.00 0.00 69 1002.6
20220523134247 59 293 6.1 10.4 0.00 0.00 0.00 68 1002.6
20220523133746 59 307 6.1 11.3 0.00 0.00 0.00 66 1002.6
20220523133246 59 311 4.3 10.4 0.00 0.00 0.00 69 1002.6
20220523132746 59 327 7.8 13.9 0.00 0.00 0.00 66 1002.6
20220523132249 59 321 8.7 13.9 0.00 0.00 0.00 68 1002.5
20220523131747 59 318 7.0 12.2 0.00 0.00 0.00 69 1002.6
20220523131247 59 319 6.1 12.2 0.00 0.00 0.00 69 1002.5
20220523130748 58 328 6.1 12.2 0.00 0.00 0.00 70 1002.6
20220523130248 58 316 7.8 13.0 0.00 0.00 0.00 70 1002.6
20220523125746 58 314 7.8 13.9 0.00 0.00 0.00 69 1002.8
20220523125247 59 329 5.2 12.2 0.00 0.00 0.00 70 1002.8
20220523124747 58 329 7.8 13.0 0.00 0.00 0.00 69 1002.8
20220523124250 58 314 8.7 13.9 0.00 0.00 0.00 70 1002.8
20220523123746 59 321 8.7 13.9 0.00 0.00 0.00 71 1002.8
20220523123247 59 313 6.1 12.2 0.00 0.00 0.00 71 1002.8
20220523122747 60 314 6.1 11.3 0.00 0.00 0.00 68 1002.7
20220523122247 59 293 6.1 13.0 0.00 0.00 0.00 69 1002.7
20220523121747 59 312 4.3 11.3 0.00 0.00 0.00 71 1002.9
20220523121247 59 323 6.1 10.4 0.00 0.00 0.00 71 1002.9
20220523120747 58 289 4.3 11.3 0.00 0.00 0.00 73 1002.8
20220523120248 58 326 4.3 10.4 0.00 0.00 0.00 73 1002.9
20220523115748 58 310 4.3 10.4 0.00 0.00 0.00 73 1002.9
20220523115247 58 340 4.3 10.4 0.00 0.00 0.00 74 1002.9
20220523114748 58 325 3.5 12.2 0.00 0.00 0.00 74 1003.0
20220523114247 58 322 6.1 13.0 0.00 0.00 0.00 71 1002.9
20220523113747 58 321 6.1 11.3 0.00 0.00 0.00 70 1002.9
20220523113248 59 306 7.8 13.9 0.00 0.00 0.00 67 1003.0
20220523112748 59 329 4.3 10.4 0.00 0.00 0.00 70 1002.9
20220523112248 59 305 5.2 10.4 0.00 0.00 0.00 69 1002.8
20220523111747 59 307 4.3 10.4 0.00 0.00 0.00 70 1002.8
20220523111248 59 325 5.2 10.4 0.00 0.00 0.00 71 1002.8
20220523110747 59 308 2.6 7.0 0.00 0.00 0.00 71 1002.9
20220523110247 59 279 3.5 10.4 0.00 0.00 0.00 71 1003.0
20220523105750 59 310 5.2 7.8 0.00 0.00 0.00 70 1003.1
20220523105247 59 306 4.3 10.4 0.00 0.00 0.00 73 1003.1
20220523104748 59 326 5.2 10.4 0.00 0.00 0.00 71 1003.1
20220523104248 59 306 2.6 10.4 0.00 0.00 0.00 73 1003.2
20220523103747 58 251 2.6 7.0 0.00 0.00 0.00 73 1003.2
20220523103248 58 324 4.3 10.4 0.00 0.00 0.00 72 1003.3
20220523102749 58 292 4.3 7.8 0.00 0.00 0.00 71 1003.4
20220523102248 58 296 7.0 12.2 0.00 0.00 0.00 69 1003.4
20220523101749 58 292 7.0 12.2 0.00 0.00 0.00 71 1003.4
20220523101249 57 302 5.2 11.3 0.00 0.00 0.00 72 1003.5
20220523100750 57 319 5.2 12.2 0.00 0.00 0.00 74 1003.5
20220523100250 57 304 4.3 7.8 0.00 0.00 0.00 76 1003.6
20220523095749 56 291 4.3 7.8 0.00 0.00 0.00 76 1003.6
20220523095250 56 285 4.3 10.4 0.00 0.00 0.00 80 1003.6
20220523094749 56 298 5.2 10.4 0.00 0.00 0.00 80 1003.5
20220523094248 56 291 5.2 10.4 0.00 0.00 0.00 80 1003.5
20220523093747 56 280 4.3 7.0 0.00 0.00 0.00 81 1003.5
20220523093249 56 279 2.6 10.4 0.00 0.00 0.00 82 1003.5
20220523092748 55 329 4.3 7.8 0.00 0.00 0.00 82 1003.5
20220523092251 55 288 4.3 10.4 0.00 0.00 0.00 81 1003.5
20220523091748 55 311 4.3 7.8 0.00 0.00 0.00 82 1003.6
20220523091248 55 290 5.2 7.8 0.00 0.00 0.00 82 1003.6
20220523090748 56 309 6.1 11.3 0.00 0.00 0.00 80 1003.7
20220523090248 56 292 5.2 8.7 0.00 0.00 0.00 83 1003.6
20220523085749 55 314 5.2 10.4 0.00 0.00 0.00 83 1003.7
20220523085249 55 288 2.6 7.0 0.00 0.00 0.00 86 1003.7
20220523084748 54 289 4.3 10.4 0.00 0.00 0.00 85 1003.8
20220523084250 54 304 4.3 7.8 0.00 0.00 0.00 87 1003.8
20220523083750 54 284 4.3 7.0 0.00 0.00 0.00 86 1003.8
20220523083250 55 293 4.3 7.0 0.00 0.00 0.00 85 1003.8
20220523082749 55 282 3.5 7.0 0.00 0.00 0.00 83 1003.8
20220523082248 56 297 5.2 11.3 0.00 0.00 0.00 80 1003.7
20220523081750 56 311 5.2 10.4 0.00 0.00 0.00 79 1003.8
20220523081250 56 298 2.6 7.0 0.00 0.00 0.00 80 1003.8
20220523080749 55 276 3.5 7.0 0.00 0.00 0.00 81 1003.9
20220523080248 55 323 2.6 6.1 0.00 0.00 0.00 81 1003.9
20220523075749 55 300 1.7 5.2 0.00 0.00 0.00 82 1003.9
20220523075250 55 323 1.7 5.2 0.00 0.00 0.00 83 1003.9
20220523074748 54 289 1.7 7.0 0.00 0.00 0.00 83 1004.1
20220523074249 54 306 1.7 5.2 0.00 0.00 0.00 84 1004.1
20220523073749 54 275 1.7 5.2 0.00 0.00 0.00 86 1004.1
20220523073249 54 239 1.7 5.2 0.00 0.01 0.00 86 1004.1
20220523072749 54 259 1.7 5.2 0.00 0.01 0.00 88 1004.1
20220523072250 53 275 1.7 4.3 0.00 0.01 0.00 88 1004.2
20220523071749 53 288 1.7 4.3 0.00 0.01 0.00 88 1004.2
20220523071250 52 270 1.7 5.2 0.00 0.01 0.00 88 1004.2
20220523070749 52 298 1.7 4.3 0.00 0.01 0.00 89 1004.3
20220523070249 52 286 1.7 5.2 0.00 0.01 0.00 89 1004.3
20220523065750 52 312 1.7 5.2 0.00 0.01 0.00 88 1004.3
20220523065250 52 295 2.6 5.2 0.00 0.01 0.00 89 1004.3
20220523064751 52 282 0.9 5.2 0.00 0.01 0.00 89 1004.3
20220523064250 52 271 0.0 1.7 0.00 0.01 0.00 89 1004.4
20220523063749 52 272 1.7 5.2 0.00 0.01 0.00 89 1004.3
20220523063251 51 273 1.7 5.2 0.00 0.01 0.00 88 1004.4
20220523062750 51 272 1.7 5.2 0.00 0.02 0.00 88 1004.4
20220523062249 51 264 1.7 5.2 0.00 0.02 0.00 88 1004.4
20220523061749 51 279 2.6 5.2 0.00 0.02 0.00 88 1004.4
20220523061249 51 282 0.0 1.7 0.00 0.02 0.00 88 1004.4
20220523060749 51 274 1.7 4.3 0.00 0.02 0.00 88 1004.5
20220523060249 51 273 0.0 0.0 0.00 0.02 0.00 88 1004.5
20220523055749 51 276 0.0 1.7 0.00 0.02 0.00 88 1004.5
20220523055249 51 88 0.0 1.7 0.00 0.02 0.00 88 1004.5
20220523054750 51 90 0.0 0.0 0.00 0.02 0.00 88 1004.5
20220523054250 51 90 0.0 0.0 0.00 0.02 0.00 88 1004.4
20220523053751 51 88 0.0 0.0 0.00 0.02 0.00 88 1004.5
20220523053250 50 17 0.0 0.0 0.00 0.02 0.00 88 1004.5
20220523052750 51 17 0.0 0.0 0.00 0.02 0.00 87 1004.5
20220523052251 51 5 0.0 0.0 0.00 0.02 0.00 88 1004.5
20220523051749 50 252 0.0 0.0 0.00 0.02 0.00 87 1004.4
20220523051250 50 249 0.0 0.0 0.00 0.02 0.00 88 1004.3
20220523050750 50 301 0.0 0.0 0.00 0.02 0.00 88 1004.3
20220523050250 50 275 0.0 0.0 0.00 0.03 0.00 88 1004.3
20220523045750 50 276 0.9 4.3 0.00 0.03 0.00 88 1004.3
20220523045250 50 250 0.9 4.3 0.00 0.03 0.00 89 1004.4
20220523044750 50 247 0.0 0.0 0.00 0.03 0.00 89 1004.4
20220523044250 50 245 0.0 0.0 0.00 0.03 0.00 88 1004.4
20220523043750 50 244 1.7 5.2 0.00 0.03 0.00 88 1004.4
20220523043251 50 248 1.7 5.2 0.00 0.03 0.00 88 1004.5
20220523042753 50 240 0.9 4.3 0.00 0.03 0.00 87 1004.5
20220523042253 50 274 0.0 5.2 0.00 0.03 0.00 87 1004.5
20220523041751 50 158 0.0 0.0 0.00 0.03 0.00 88 1004.5
20220523041252 50 157 0.0 0.0 0.00 0.03 0.00 87 1004.5
20220523040752 50 179 0.0 0.0 0.00 0.03 0.00 87 1004.5
20220523040250 50 208 0.0 0.0 0.00 0.03 0.00 87 1004.6
20220523035750 50 230 0.0 0.0 0.00 0.03 0.00 87 1004.6
20220523035250 50 262 0.0 0.0 0.00 0.04 0.00 86 1004.7
20220523034750 50 262 0.0 4.3 0.00 0.04 0.00 87 1004.7
20220523034251 50 261 0.0 0.0 0.00 0.04 0.00 87 1004.7
20220523033752 50 278 0.0 0.0 0.00 0.04 0.00 87 1004.8
20220523033251 50 268 0.0 0.0 0.00 0.04 0.00 87 1004.8
20220523032751 50 203 0.0 0.0 0.00 0.04 0.00 88 1004.8
20220523032252 50 203 0.0 0.0 0.00 0.04 0.00 88 1004.8